1st Responders/1st Detectors/Storm Spotters Weather Summary for Adair County, KY

Forecast Maps


Reg. NEXRAD Animation


National Fire Danger: Day 1 & 2 Map

Current NWS Watch/Warnings

SPC Convective Day 1 Outlook


Day 2 Outlook

(Click images to enlarge|Page will refresh every 5 minutes)
UK Ag. Weather Center Desktop Severe Weather Service[HERE]
Adair County, KY Hazardous Weather Outlook Webcast
(9 AM to 9 PM Mon-Fri)
[Fast]
[Dial-up]


UKAWC 1st Detectors/1st Responders Precision Weather Forecast For ADAIR County, Kentucky
(based on the NWS County Digital Forecast)

ISSUED AT 19:00 UTC ON SUNDAY OCT 22 2017
DAY SUNDAY
CDT 3HR 3P 4P 5P 6P
MAX/MIN -- -- -- 79°
TEMP 79° 79° 76° 72°
SKY COVER 39% 39% 43% 48%
Clouds
DEW PT 58° 58° 58° 58°
RH 48% 50% 54% 61%
POP 12HR -- -- -- --
RAIN/SNOW (liq.equ) -- -- -- --
SNOWFALL -- -- -- --
WIND SPEED(MPH) 9 9 8 7
WIND Gust(MPH) 23 23 23 15
WIND DIR S S S S
DEW -- -- -- --
HeatIndex 80 79 76 72
Rain Showers -- -- -- --
Fog -- -- -- --
WIND CHILL -- -- -- --
SPRAY COND
DRY COND
LIVESTOCK COLDSTRESS
LIVESTOCK HEATSTRESS 73.22 73.44 71.65 69.17



DAY MONDAY TUESDAY WEDNESDAY THURSDAY FRIDAY SATURDAY
CDT 6HR 7P 8P 9P 10P 11P MIDN 1A 2A 3A 4A 5A 6A 7A 8A 9A 10A 11A NOON 1P 2P 3P 4P 5P 6P 7P 8P 9P 10P 11P MIDN 1A 2A 4A 7A 10A 1P 4P 7P 1A 7A 1P 7P 1A 7A 1P 7P 1A 7A 1P 7P 1A 7A 1P 7P
MAX/MIN -- -- -- -- -- -- -- -- -- -- -- -- 61° -- -- -- -- -- -- -- -- -- -- 65° -- -- -- -- -- -- -- -- -- 47° -- -- 58° -- -- 38° 54° -- -- 38° 65° -- -- 47° 65° -- -- 41° 58° --
TEMP 68° 67° 67° 67° 65° 65° 65° 65° 65° 65° 63° 63° 65° 61° 63° 65° 65° 65° 65° 65° 65° 65° 61° 59° 58° 58° 56° 56° 54° 52° 52° 50° 49° 47° 54° 58° 56° 47° 40° 38° 52° 47° 43° 40° 63° 56° 50° 49° 65° 56° 47° 43° 58° 49°
SKY COVER 52% 56% 65% 69% 75% 85% 91% 92% 93% 94% 95% 96% 99% 99% 99% 100% 98% 96% 94% 94% 95% 95% 92% 85% 82% 77% 66% 61% 58% 52% 50% 49% 49% 53% 23% 47% 51% 54% 41% 40% 46% 44% 20% 8% 5% 6% 8% 17% 44% 59% 68% 66% 62% 57%
Clouds
DEW PT 58° 58° 58° 58° 58° 59° 59° 59° 61° 61° 61° 61° 61° 61° 59° 59° 59° 59° 59° 59° 58° 58° 56° 54° 54° 52° 52° 52° 50° 49° 49° 47° 45° 45° 45° 41° 38° 36° 34° 34° 34° 36° 36° 36° 41° 43° 43° 43° 47° 47° 43° 40° 40° 38°
RH 70% 72% 75% 75% 78% 83% 83% 84% 87% 90% 92% 96% 90% 96% 90% 83% 80% 80% 80% 81% 77% 78% 83% 83% 83% 83% 86% 83% 86% 89% 89% 89% 89% 96% 71% 55% 51% 65% 78% 84% 49% 62% 79% 88% 44% 63% 73% 80% 52% 71% 88% 92% 51% 65%
POP 12HR 8% -- -- -- -- -- -- -- -- -- -- -- 96% -- -- -- -- -- -- -- -- -- -- -- 96% -- -- -- -- -- -- -- -- 39% -- -- -- 18% -- 4% -- 5% -- 4% -- 2% -- 5% -- 26% -- 44% -- 34%
RAIN/SNOW (liq.equ) 0.00in -- -- -- -- -- 0.02in -- -- -- -- -- 0.58in -- -- -- -- -- 0.83in -- -- -- -- -- 0.25in -- -- -- -- -- 0.06in -- -- 0.02in -- 0.00in -- 0.00in -- -- -- -- -- -- -- -- -- -- -- -- -- -- -- --
SNOWFALL 0in -- -- -- -- -- 0in -- -- -- -- -- 0in -- -- -- -- -- 0in -- -- -- -- -- 0in -- -- -- -- -- 0in -- -- 0in -- 0in -- 0in -- -- -- -- -- -- -- -- -- -- -- -- -- -- -- --
WIND SPEED(MPH) 7 7 7 8 8 8 7 7 7 7 7 7 6 7 7 7 7 6 6 7 7 7 7 7 7 7 6 6 6 7 7 7 6 7 8 10 9 7 6 7 9 6 6 5 7 7 8 7 9 7 6 6 7 5
WIND DIR S S S S S S S S S S S SE SE SE NW NW NW W W W W W W W W W W W W W SW W W W W W W W W W W SW SW S SW S S S SW SW SW W W W
HeatIndex 68 67 67 67 65 65 65 65 65 65 63 63 65 61 63 65 65 65 65 65 65 65 61 59 58 58 56 56 54 52 52 50 49 47 54 58 56 47 37 32 52 47 39 36 63 56 50 49 65 56 47 39 58 49
Rain Showers -- Slight Chance Slight Chance Chance Chance Chance Chance Likely Definite -- -- -- -- -- -- -- Definite Definite Definite Definite Definite Definite Definite Definite Chance Chance Chance Chance Chance Chance Chance Chance Chance Slight Chance Slight Chance -- -- -- -- -- -- -- -- -- -- -- -- -- Chance Chance Chance Chance Slight Chance Slight Chance
Fog -- -- -- -- -- -- -- -- -- Patchy Patchy Patchy Patchy Patchy Patchy Patchy -- -- -- -- -- -- -- -- -- -- -- -- -- -- -- -- -- -- -- -- -- -- -- -- -- -- -- -- -- -- -- -- -- -- -- -- -- --
WIND CHILL -- -- -- -- -- -- -- -- -- -- -- -- -- -- -- -- -- -- -- -- -- -- -- -- -- -- -- -- -- -- -- -- -- -- -- -- -- -- 36° 33° -- -- 39° 37° -- -- -- -- -- -- -- 39° -- --
SPRAY COND
DRY COND
LIVESTOCK COLDSTRESS
LIVESTOCK HEATSTRESS 66.48 65.74 65.87 65.87 64.25 64.42 64.42 64.45 64.56 64.66 62.82 62.91 64.66 60.95 62.77 64.42 64.32 64.32 64.32 64.35 64.22 64.25 60.79 58.98 58.07 58.07 56.22 56.26 54.37 52.41 52.41 50.53 49.59 47.26 54.77 58.20 56.75 49.27 42.27 39.83 53.91 49.47 44.82 41.24 61.71 56.57 51.31 50.08 63.36 56.45 47.78 43.70 58.22 50.89

Click on individual weather variable above in left-hand column (ie., TEMP, RH, QPF 12HR) to view state forecast maps






NWS 48 Hr. Forecast Maps,

Regional Hourly Observations For ADAIR County, Kentucky
Issued at 300 PM EDT SUN OCT 22 2017
SOUTHEAST KENTUCKY
  
CITY           SKY/WX    TMP DP  RH WIND       PRES   REMARKS
JACKSON        MOSUNNY   74  50  42 CALM      30.19F                  
LONDON         CLOUDY    75  49  39 S16G28    30.17F                  
SOMERSET       PTSUNNY   73  52  46 SW10G20   30.17S                  
MIDDLESBORO    MOSUNNY   77  50  39 S5        30.20F                  
MONTICELLO     MOCLDY    76  58  53 SE13      30.16F                  


Current NOWCAST not available:
Nowcasts are not issued routinely during fair weather. Only when
precipitation or other significant weather is occuring in this county will these
forecasts be issued. Currently, there is no short term forecast in effect.


Fire Weather Forecast For ADAIR County, KY
Provided by the National Weather Service:

Issued at: Sun Oct 22 15:05:01 EDT 2017


                      Today        Tonight      Mon          

CLOUD COVER           MClear       MCldy        Cloudy       
PRECIP TYPE           NONE         showers      showers      
CHANCE PRECIP (%)     0            90           100          
TEMP (24H TREND)      80 (+4)      59 (+5)      66           
RH % (24H TREND)      43 (+10)     100 (+15)    75           
20FTWND-VAL/AM(MPH)   S  6 G19                  Lgt/Var      
20FTWND-RDG/PM(MPH)   S  8 G17     SE  5        SW  6        
PRECIP AMOUNT         0.00         0.38         1.08         
MIXING HGT(FT-AGL/MSL)5524                      2723         
TRANSPORT WND (MPH)   S 21                      SW 10        
VENT RATE (KT-FT)     106264                    26940        
DISPERSION            Excellent                 Poor         
DSI                   SLGT UNSTBL  SLGT UNSTBL  STBL         
LAL                   1            1            1            
HAINES INDEX          4            3            3            
ADI EARLY             53 GEN GOOD  13 GEN POOR  15 GEN POOR  
ADI LATE              83 GOOD      13 GEN POOR  23 FAIR      
MAX LVORI EARLY       5            4            6            
MAX LVORI LATE        1            7            4            

REMARKS...ADI IS ATMOSPHERIC DISPERSION INDEX BY LAVDAS.        
LVORI IS LOW VISIBILITY OCCURRENCE RISK INDEX.

.TUESDAY...Mostly cloudy. A 50 percent chance of rain showers.
Lows in the mid 40s. Highs in the upper 50s. Southwest winds
around 5 mph. 
.WEDNESDAY...Partly cloudy. Lows in the upper 30s. Highs in the
mid 50s. West winds around 5 mph. 
.THURSDAY...Mostly clear. Lows in the upper 30s. Highs in the mid
60s. South winds up to 5 mph. 
.FRIDAY...Mostly clear. A 30 percent chance of rain showers. Lows
in the upper 40s. Highs in the mid 60s. Southwest winds 5 to
10 mph. 
.SATURDAY...Mostly cloudy. A 50 percent chance of rain showers.
Lows in the lower 40s. Highs in the upper 50s. West winds 5 to
10 mph. 

SPC's Fire Weather Web Tool (Excellent!), SPC's Fire Weather Outlooks, NWS Fire Weather WEB, Fire Danger Class Map,
Keetch-Byram Drought Index, ROMAN Web, Haines Index ,
WFAS's 10-hr Dead Fuel Moist., WFAS's 100-hr Dead Fuel Moist., Probablity of Ignition, Visual blackness Map, Palmer Drought Index, HPC's Rainfall Forecast Maps


Hazardous Weather Outlook For ADAIR County, Kentucky
311 AM EDT Sun Oct 22 2017 /211 AM CDT Sun Oct 22 2017/

 DAY ONE  Today and Tonight.

Widespread showers are expected tonight with the potential for
locally heavy rain.

 DAYS TWO THROUGH SEVEN  Monday through Saturday.

Locally heavy rain will be possible Monday, especially in the morning
hours. Total rainfall amounts from Sunday night through Monday
afternoon are expected to be between 1 and 2 inches, with locally
higher amounts possible across central Kentucky. 

 SPOTTER INFORMATION STATEMENT  

Spotters are encouraged to report rainfall amounts.

Latest ADAIR County, Kentucky Watches, Warnings and Advisories.
Additional Drought Info.: UKAWC Drought Page, Kentucky Drought Watch


7-Day Forecast For ADAIR County, KY

TODAY
Mostly sunny. Highs around 80. South winds 5 to 15 mph.

TONIGHT
Showers. Lows in the lower 60s. Southeast winds 5 to 10 mph. Chance of showers near 100 percent.

MONDAY
Showers. Highs in the mid 60s. Southwest winds 5 to 10 mph. Chance of showers near 100 percent.

MONDAY NIGHT
Partly cloudy with a 50 percent chance of showers. Lows in the mid 40s. West winds 5 to 10 mph.

TUESDAY
Partly cloudy with a 20 percent chance of showers. Highs in the upper 50s. West winds 5 to 15 mph.

TUESDAY NIGHT
Partly cloudy. Lows in the upper 30s.

WEDNESDAY
Partly cloudy. Highs in the mid 50s.

WEDNESDAY NIGHT
Partly cloudy. Lows in the upper 30s.

THURSDAY
Mostly sunny. Highs in the mid 60s.

THURSDAY NIGHT
Mostly clear. Lows in the upper 40s.

FRIDAY
Partly cloudy with a 30 percent chance of showers. Highs in the upper 60s.

FRIDAY NIGHT
Partly cloudy with a 50 percent chance of showers. Lows in the lower 40s.

SATURDAY
Partly cloudy with a 40 percent chance of showers. Highs in the upper 50s.

Ag Weather Center, Department of Biosystems & Agricultural Engineering, University of Kentucky